NOAA 19 (33591 NORAD) Tracking and Keplerian Element Data

This shows tracking and keplerian element data for the satellite.

Feedback or suggestion? Click here.




ElementValue
Catalog33591
NameNOAA 19
Epoch Orbit58827
Epoch Day189.85206317
Epoch Year2020
RAAN195.7303
Inclination99.1947
Eccentricity0.0014354
Argument of Perigee22.9257
Mean Anonmoly337.2552
Mean Motion14.12419726
Decay Rate4.4E-07
L11 33591U 09005A 20189.85206317 .00000044 00000-0 49164-4 0 9993
L22 33591 99.1947 195.7303 0014354 22.9257 337.2552 14.12419726588278

Live tracking and technical data element details for NOAA 19 (NORAD 33591). NOAA 19 can be tracked NOW for your location showing map with azimuth and elevation plus other details from your city location.

Track the satellite on the map from your city or location and see movement details for azimuth, elevation, latitude, longitude, range, height, and movement on the map or in text.







IsCatalogInMostPopularTable: catalog: 33591, numindb: 960
Update: records affected: 1



GetName: 33591 NOAA 19

Hit Count: updated at: Wed, 08 Jul 2020 23:30:43 GMT